Find Starlink 34166

NORAD ID: 64158 Int'l Des: 2025-112 Owner: SPXS Country: US Constellation: starlink operational
LEOCIRCULARRETROGRADESSO

現在のビュー

3D地球を読み込み中...

About Starlink 34166

Starlink 34166 (NORAD 64158) is a starlink constellation satellite (v2 mini) launched May 27, 2025 by SPXS of US. It operates in LEO, CIRCULAR, RETROGRADE, SSO orbit with a mass of 575.00 kg.

次回通過

Passes for default location (London). Set your location on the main map for personalized predictions.

高度履歴

Loading altitude history...

軌道要素

1 64158U 25112N 26263.56801441 .00014403 00000-0 44724-3 0 9999
2 64158 97.2840 310.5611 0000377 111.3546 248.7737 15.33470548 72750
Epoch: Sep 20, 2026 • Age: 18 hours

現在のステータス

高度 494.1 km
遠地点 / 近地点 N/A
速度 7.62 km/s
衛星直下点 -82.58°S, 92.04°W
打ち上げ日 May 27, 2025
運用期間 1.3 years
タイプ internet

技術仕様

分類 Payload
質量 575.00 kg
乾燥質量 530.00 kg
長さ 0.30 m
スパン 29.00 m
形状 ? Box + pan
製造者 SPXS
バスタイプ Starlink V2MO
フェーズステータス In Orbit
所有者/国 SPXS/US

Most Searched